Location: Asheville, NC
(35.6000°N, 82.5500°W)
Time: 15:55:17
(UTC-05:00)

KAITUO 1B - Pass Details

Date: 03 January 2018
Orbit: 500 x 521 km, 97.5° (Epoch: 19 January)

Event Time Altitude Azimuth Distance (km) Brightness Sun altitude
Rises 18:56:12 0° 201° (SSW) 2,628 ? -17.1°
Reaches altitude 10° 18:58:49 10° 221° (SW) 1,747 ? -17.6°
Maximum altitude 19:01:26 18° 265° (W) 1,328 ? -18.2°
Drops below altitude 10° 19:04:04 10° 310° (NW) 1,757 ? -18.7°
Sets 19:06:43 0° 329° (NNW) 2,649 ? -19.2°
